Regional Weather Roundup
Issued by NWS

Home | Current Version | Previous Version | Graphics & Text | Print | Product List | Glossary On
Versions: 1 2 3 4 5 6 7 8 9 10 11 12 13 14 15 16 17 18 19 20 21 22 23 24 25 26 27 28 29 30 31 32 33 34 35 36 37 38 39 40 41 42 43 44 45 46 47 48 49 50
000
ASUS43 KTOP 241159
RWRKS

WEATHER ROUNDUP FOR KANSAS
NATIONAL WEATHER SERVICE GOODLAND KS
700 AM CDT THU APR 24 2014

NOTE:  "FAIR" INDICATES FEW OR NO CLOUDS BELOW 12,000 FEET WITH NO
SIGNIFICANT WEATHER AND/OR OBSTRUCTIONS TO VISIBILITY.

KSZ001>006-013>018-027>032-041>047-241300-
NORTHWEST KANSAS

CITY           SKY/WX    TMP DP  RH WIND       PRES   REMARKS
GOODLAND       CLOUDY    46  33  60 N16       29.90R
6HR MIN TEMP:  46; 6HR MAX TEMP:  56;

HAYS           PTCLDY    52  45  76 NW15      29.75R
HILL CITY      CLOUDY    52  41  66 N15       29.78R
6HR MIN TEMP:  52; 6HR MAX TEMP:  56; 6HR PCP:  0.01;

$$

KSZ061>065-074>080-084>089-241300-
SOUTHWEST KANSAS

CITY           SKY/WX    TMP DP  RH WIND       PRES   REMARKS
DODGE CITY     CLOUDY    50  38  63 NW20      29.79R
6HR MIN TEMP:  50; 6HR MAX TEMP:  64; 6HR PCP:  0.22;

ELKHART          N/A     43  35  73 NW10        N/A
GARDEN CITY    LGT RAIN  50  39  66 N9        29.84R
6HR MIN TEMP:  50; 6HR MAX TEMP:  57; 6HR PCP:  0.01;

GREAT BEND     MOCLDY    52  46  82 N8        29.71F
LIBERAL        CLOUDY    48  36  61 NW17      29.91R
$$

KSZ066>073-081>083-090>101-241300-
SOUTHEAST KANSAS

CITY           SKY/WX    TMP DP  RH WIND       PRES   REMARKS
CHANUTE        CLOUDY    68  55  63 S18G31    29.62F
6HR MIN TEMP:  66; 6HR MAX TEMP:  71;

COFFEYVILLE    CLOUDY    68  57  68 S14G23    29.63F
6HR MIN TEMP:  67; 6HR MAX TEMP:  72; 6HR PCP: TRACE;

HUTCHINSON     CLOUDY    56  51  84 N17       29.68R
6HR MIN TEMP:  56; 6HR MAX TEMP:  68; 6HR PCP:  0.12;

MEDICINE LODGE   N/A     58  52  80 N17G25    29.67R
NEWTON         CLOUDY    55  50  82 N13       29.68S
PARSONS        CLOUDY    69  56  62 S14G24    29.64F
6HR MIN TEMP:  67; 6HR MAX TEMP:  71; 6HR PCP: TRACE;

WICHITA INTL   CLOUDY    60  56  86 N12       29.64R
6HR MIN TEMP:  60; 6HR MAX TEMP:  69; 6HR PCP:  0.02;

WICHITA JABRA  CLOUDY    58  58 100 N10       29.64R
6HR MIN TEMP:  58; 6HR MAX TEMP:  70; 6HR PCP:  0.05;

WICHITA MCCONL CLOUDY    61  61 100 N12       29.64S
WINFIELD       CLOUDY    67  60  78 SW13      29.63R
6HR MIN TEMP:  65; 6HR MAX TEMP:  68;

$$

KSZ007>012-019>026-033>040-048>060-102>105-241300-
NORTHEAST KANSAS

CITY           SKY/WX    TMP DP  RH WIND       PRES   REMARKS
CONCORDIA      CLOUDY    52  51  97 NW14      29.68R
6HR MIN TEMP:  52; 6HR MAX TEMP:  61; 6HR PCP:  0.36;

EMPORIA        LGT RAIN  62  60  93 NW13G21   29.64R FOG
6HR MIN TEMP:  62; 6HR MAX TEMP:  73; 6HR PCP:  0.12;

LAWRENCE       LGT RAIN  64  59  83 S8        29.64S
6HR MIN TEMP:  63; 6HR MAX TEMP:  71; 6HR PCP:  0.16;

MANHATTAN      MOCLDY    55  50  84 CALM      29.62F
6HR MIN TEMP:  54; 6HR MAX TEMP:  73; 6HR PCP:  0.52;

OLATHE IND     LGT RAIN  61  51  70 E3        29.68R
6HR MIN TEMP:  61; 6HR MAX TEMP:  67; 6HR PCP: TRACE;

OLATHE EXE     LGT RAIN  61  49  64 SE8       29.66R
6HR MIN TEMP:  61; 6HR MAX TEMP:  66; 6HR PCP:  0.01;

SALINA         CLOUDY    55  51  86 NW13      29.68R
6HR MIN TEMP:  55; 6HR MAX TEMP:  71; 6HR PCP:  0.65;

TOPEKA BILLARD HVY RAIN  59  57  93 NW18G37   29.65R VSB 3/4
6HR MIN TEMP:  59; 6HR MAX TEMP:  73; 6HR PCP:  0.66;

TOPEKA FORBES  HVY RAIN  60  57  89 N26G37    29.66R VSB 3/4
6HR MIN TEMP:  60; 6HR MAX TEMP:  72; 6HR PCP:  0.74;

$$



USA.gov is the U.S. government's official web portal to all federal, state and local government web resources and services.